Accueil
METAR-TAF:

METAR-TAF

Aéroports :

Deer Park, Washington, États-Unis

Deer Park Airport

latitude: 47-58-27N, longitude: 117-25-42W, altitude: 672 m

Observation

Le bulletin a été fait il y a 1 heure et 3 minutes, à 14:53 UTC
Vent calme
Température -16°C
Humidité 84%
Pression 1022 hPa
Visibilité: 16.1 km
Ciel couvert à une hauteur de 5000 ft

METAR: KDEW 201453Z AUTO 00000KT 10SM OVC050 M16/M18 A3017 RMK AO2 SLP263 T11561178 51006

Heure: 07:56 (15:56 UTC)


TAF: absent

Observations et prévisions météorologiques de plus de 4000 aéroports (messages METAR et TAF).

Les stations disponibles sont représentées par des disques jaunes et rouges sur la carte.

Passer la souris dessus pour voir le nom de la station.

Cliquer dessus pour voir les observations et prévisions météorologiques.

Pour changer de carte: cliquez sur les boutons verts avec une croix noire pour zoomer, sur le bouton vert avec un tiret pour effectuer un zoom arrière, ou sur les flèches vertes pour les cartes adjacentes.


METAR-TAF: